Weather History for Silver City, NM

Change the Weather History Date:

Thursday, April 4, 2013

  Actual Average (KDMN) Record (KDMN)
Temperature  
Mean Temperature 57 °F 56 °F  
Max Temperature 73 °F 73 °F 89 °F (1961)
Min Temperature 41 °F 38 °F 26 °F (1956)
Degree Days  
Heating Degree Days 8    
Growing Degree Days 7 (Base 50)    
Moisture  
Dew Point 11 °F    
Average Humidity 18    
Maximum Humidity 33    
Minimum Humidity 8    
Precipitation  
Precipitation 0.00 in 0.01 in 0.50 in (2004)
Month to date precipitation 0.04  
Year to date precipitation 1.66  
Sea Level Pressure  
Sea Level Pressure 30.20 in    
Wind  
Wind Speed 9 mph (West)    
Max Wind Speed 14 mph    
Max Gust Speed 18 mph    
Visibility 10 miles    
Events      
T = Trace of Precipitation, MM = Missing Value Source: NWS Daily Summary

Daily Weather History Graph

Daily Weather History Graph

Search for Another Location

Airport:

Trip Planner

Search our weather history database for the weather conditions in past years. The results will help you decide how hot, cold, wet, or windy it might be!

Date:

Astronomy

Apr. 04, 2013 Rise Set
Actual Time 6:56 AM MDT 7:35 PM MDT
Civil Twilight 6:31 AM MDT 7:59 PM MDT
Nautical Twilight 6:02 AM MDT 8:29 PM MDT
Astronomical Twilight 5:32 AM MDT 8:59 PM MDT
Moon 3:07 AM MDT (4/4) 2:13 PM MDT (4/4)
Length of Visible Light 13h 28m
Length of Day
12h 38m
Waning Crescent, 33% of the Moon is Illuminated
Apr 4
Waning Crescent
Apr 10
New
Apr 18
First Quarter
Apr 25
Full
May 2
Last Quarter

Hourly Weather History & Observations

Time (MDT) Temp. Windchill Dew Point Humidity Pressure Visibility Wind Dir Wind Speed Gust Speed Precip Events Conditions
12:15 AM 46.4 °F 41.1 °F 15.8 °F 29% 30.18 in 10.0 mi North 11.5 mph - N/A   Clear
12:35 AM 46.4 °F 42.4 °F 14.0 °F 27% 30.18 in 10.0 mi North 8.1 mph - N/A   Clear
12:55 AM 44.6 °F 39.2 °F 14.0 °F 29% 30.18 in 10.0 mi North 10.4 mph - N/A   Clear
1:15 AM 48.2 °F - 14.0 °F 25% 30.18 in 10.0 mi North 13.8 mph - N/A   Clear
1:35 AM 46.4 °F 42.4 °F 15.8 °F 29% 30.18 in 10.0 mi NNE 8.1 mph - N/A   Clear
1:55 AM 44.6 °F 39.7 °F 14.0 °F 29% 30.18 in 10.0 mi NW 9.2 mph - N/A   Clear
2:15 AM 44.6 °F 39.7 °F 14.0 °F 29% 30.18 in 10.0 mi NW 9.2 mph - N/A   Clear
2:35 AM 46.4 °F 42.4 °F 15.8 °F 29% 30.19 in 10.0 mi WNW 8.1 mph - N/A   Clear
2:55 AM 44.6 °F 40.2 °F 14.0 °F 29% 30.19 in 10.0 mi NW 8.1 mph - N/A   Clear
3:15 AM 42.8 °F 37.0 °F 14.0 °F 31% 30.19 in 10.0 mi NW 10.4 mph - N/A   Clear
3:35 AM 44.6 °F 39.7 °F 14.0 °F 29% 30.19 in 10.0 mi NNW 9.2 mph - N/A   Clear
3:55 AM 44.6 °F 40.7 °F 14.0 °F 29% 30.18 in 10.0 mi NNE 6.9 mph - N/A   Clear
4:15 AM 41.0 °F 35.2 °F 14.0 °F 33% 30.19 in 10.0 mi WNW 9.2 mph - N/A   Clear
4:35 AM 44.6 °F 38.4 °F 15.8 °F 31% 30.19 in 10.0 mi West 12.7 mph - N/A   Clear
4:55 AM 44.6 °F 38.1 °F 15.8 °F 31% 30.20 in 10.0 mi WNW 13.8 mph - N/A   Clear
5:15 AM 44.6 °F 39.7 °F 14.0 °F 29% 30.20 in 10.0 mi NNW 9.2 mph - N/A   Clear
5:35 AM 44.6 °F 38.8 °F 14.0 °F 29% 30.19 in 10.0 mi NNW 11.5 mph - N/A   Clear
5:55 AM 44.6 °F 39.7 °F 14.0 °F 29% 30.20 in 10.0 mi NW 9.2 mph - N/A   Clear
6:15 AM 41.0 °F 34.7 °F 14.0 °F 33% 30.20 in 10.0 mi NW 10.4 mph - N/A   Clear
6:35 AM 44.6 °F 39.2 °F 14.0 °F 29% 30.21 in 10.0 mi WNW 10.4 mph - N/A   Clear
6:55 AM 44.6 °F 39.7 °F 14.0 °F 29% 30.22 in 10.0 mi WNW 9.2 mph - N/A   Clear
7:15 AM 42.8 °F 38.0 °F 14.0 °F 31% 30.22 in 10.0 mi NW 8.1 mph - N/A   Clear
7:35 AM 44.6 °F 40.2 °F 14.0 °F 29% 30.23 in 10.0 mi NW 8.1 mph - N/A   Clear
7:55 AM 46.4 °F 42.4 °F 14.0 °F 27% 30.24 in 10.0 mi WNW 8.1 mph - N/A   Clear
8:15 AM 50.0 °F - 15.8 °F 26% 30.24 in 10.0 mi WNW 8.1 mph - N/A   Clear
8:35 AM 55.4 °F - 17.6 °F 23% 30.25 in 10.0 mi WNW 4.6 mph - N/A   Clear
8:55 AM 59.0 °F - 15.8 °F 19% 30.25 in 10.0 mi Calm Calm - N/A   Clear
9:15 AM 62.6 °F - 15.8 °F 16% 30.25 in 10.0 mi Calm Calm - N/A   Clear
9:35 AM 62.6 °F - 15.8 °F 16% 30.26 in 10.0 mi South 5.8 mph - N/A   Clear
9:55 AM 64.4 °F - 15.8 °F 15% 30.26 in 10.0 mi ESE 3.5 mph - N/A   Clear
10:35 AM 66.2 °F - 14.0 °F 13% 30.26 in 10.0 mi South 5.8 mph - N/A   Clear
10:55 AM 68.0 °F - 14.0 °F 12% 30.26 in 10.0 mi SSE 10.4 mph - N/A   Clear
11:15 AM 66.2 °F - 12.2 °F 12% 30.27 in 10.0 mi South 4.6 mph - N/A   Clear
11:35 AM 68.0 °F - 12.2 °F 12% 30.27 in 10.0 mi South 11.5 mph 18.4 mph N/A   Clear
11:55 AM 68.0 °F - 12.2 °F 12% 30.27 in 10.0 mi South 9.2 mph - N/A   Clear
12:15 PM 68.0 °F - 12.2 °F 12% 30.26 in 10.0 mi Calm Calm - N/A   Clear
12:35 PM 68.0 °F - 12.2 °F 12% 30.25 in 10.0 mi SW 8.1 mph - N/A   Clear
12:55 PM 69.8 °F - 12.2 °F 11% 30.24 in 10.0 mi ESE 9.2 mph - N/A   Clear
1:15 PM 69.8 °F - 10.4 °F 10% 30.24 in 10.0 mi SSE 10.4 mph - N/A   Clear
1:35 PM 71.6 °F - 12.2 °F 10% 30.22 in 10.0 mi SSW 9.2 mph 16.1 mph N/A   Clear
1:55 PM 71.6 °F - 10.4 °F 9% 30.21 in 10.0 mi South 10.4 mph - N/A   Clear
2:15 PM 71.6 °F - 10.4 °F 9% 30.20 in 10.0 mi South 12.7 mph 18.4 mph N/A   Clear
2:35 PM 69.8 °F - 10.4 °F 10% 30.20 in 10.0 mi Calm Calm - N/A   Clear
2:55 PM 69.8 °F - 10.4 °F 10% 30.19 in 10.0 mi SW 8.1 mph - N/A   Clear
3:15 PM 71.6 °F - 12.2 °F 10% 30.18 in 10.0 mi SSE 4.6 mph - N/A   Clear
3:35 PM 71.6 °F - 10.4 °F 9% 30.17 in 10.0 mi SSE 5.8 mph - N/A   Clear
3:55 PM 71.6 °F - 10.4 °F 9% 30.17 in 10.0 mi SSE 8.1 mph - N/A   Clear
4:15 PM 73.4 °F - 8.6 °F 8% 30.16 in 10.0 mi SSE 8.1 mph - N/A   Clear
4:35 PM 73.4 °F - 8.6 °F 8% 30.15 in 10.0 mi SW 10.4 mph - N/A   Clear
4:55 PM 73.4 °F - 8.6 °F 8% 30.15 in 10.0 mi South 10.4 mph 18.4 mph N/A   Clear
5:15 PM 73.4 °F - 8.6 °F 8% 30.15 in 10.0 mi South 10.4 mph - N/A   Clear
5:35 PM 71.6 °F - 6.8 °F 8% 30.15 in 10.0 mi SSW 9.2 mph - N/A   Clear
5:55 PM 71.6 °F - 6.8 °F 8% 30.15 in 10.0 mi SSW 9.2 mph 16.1 mph N/A   Clear
6:15 PM 71.6 °F - 6.8 °F 8% 30.15 in 10.0 mi SW 9.2 mph - N/A   Clear
6:35 PM 71.6 °F - 6.8 °F 8% 30.15 in 10.0 mi SSW 11.5 mph - N/A   Clear
6:55 PM 69.8 °F - 8.6 °F 9% 30.15 in 10.0 mi SSW 8.1 mph - N/A   Clear
7:15 PM 68.0 °F - 8.6 °F 10% 30.15 in 10.0 mi SSW 8.1 mph - N/A   Clear
7:35 PM 66.2 °F - 6.8 °F 10% 30.15 in 10.0 mi SSW 5.8 mph - N/A   Clear
7:55 PM 64.4 °F - 6.8 °F 10% 30.15 in 10.0 mi SW 3.5 mph - N/A   Clear
8:15 PM 64.4 °F - 5.0 °F 10% 30.15 in 10.0 mi WSW 3.5 mph - N/A   Clear
8:35 PM 55.4 °F - 3.2 °F 12% 30.16 in 10.0 mi NW 4.6 mph - N/A   Clear
8:55 PM 55.4 °F - 5.0 °F 13% 30.16 in 10.0 mi NNW 5.8 mph - N/A   Clear
9:15 PM 55.4 °F - 3.2 °F 12% 30.16 in 10.0 mi NNW 5.8 mph - N/A   Clear
9:35 PM 53.6 °F - 3.2 °F 13% 30.17 in 10.0 mi NNE 5.8 mph - N/A   Clear
9:55 PM 53.6 °F - 5.0 °F 14% 30.18 in 10.0 mi NNE 8.1 mph - N/A   Clear
10:15 PM 53.6 °F - 5.0 °F 14% 30.18 in 10.0 mi NNE 4.6 mph - N/A   Clear
10:35 PM 51.8 °F - 5.0 °F 15% 30.18 in 10.0 mi North 3.5 mph - N/A   Clear
10:55 PM 50.0 °F - 5.0 °F 16% 30.19 in 10.0 mi North 6.9 mph - N/A   Clear
11:15 PM 50.0 °F - 5.0 °F 16% 30.18 in 10.0 mi North 6.9 mph - N/A   Clear
11:35 PM 50.0 °F - 5.0 °F 16% 30.19 in 10.0 mi NNE 4.6 mph - N/A   Clear
11:55 PM 50.0 °F - 5.0 °F 16% 30.19 in 10.0 mi NNW 3.5 mph - N/A   Clear